Total_Precipitation_Accumulation
1.28 1.30 1.20 1.35 1.41 1.42 1.45 1.52 1.42 1.33 1.34 1.19 1.19 1.18 1.19 1.07 1.15 1.21 1.45 1.67 2.14 2.80 2.94 2.65 2.37 2.13 1.99 1.92 1.94 1.96 2.10 2.03 2.05 2.10 2.08 2.25 2.46 2.29 2.40 2.48 2.61 2.98 3.31
1.13 1.34 1.25 1.23 1.29 1.49 1.58 1.58 1.49 1.51 1.49 1.32 1.32 1.34 1.31 1.26 1.28 1.33 1.46 1.42 1.48 1.97 2.57 2.88 2.87 2.61 2.35 2.20 2.02 2.03 2.19 2.04 1.98 1.98 1.99 2.13 2.46 2.32 2.40 2.58 2.57 2.83 3.18
1.06 1.29 1.24 1.13 1.13 1.27 1.47 1.67 1.74 1.70 1.48 1.39 1.38 1.38 1.32 1.32 1.32 1.49 1.52 1.55 1.44 1.46 1.88 2.24 2.57 2.63 2.64 2.53 2.24 2.10 2.19 2.13 2.09 2.02 1.98 2.04 2.39 2.49 2.54 2.64 2.58 2.78 2.95
0.84 1.10 1.19 1.11 1.10 1.25 1.48 1.73 1.90 1.93 1.74 1.66 1.66 1.57 1.41 1.39 1.36 1.49 1.52 1.59 1.69 1.45 1.40 1.49 1.71 2.02 2.22 2.32 2.36 2.27 2.24 2.16 2.03 1.97 1.86 1.86 2.14 2.35 2.50 2.57 2.55 2.72 2.86
0.76 1.02 1.26 1.30 1.27 1.38 1.49 1.51 1.76 1.88 1.95 1.86 1.69 1.57 1.49 1.51 1.51 1.46 1.62 1.62 1.63 1.53 1.34 1.08 1.04 1.20 1.54 1.92 2.15 2.22 2.33 2.32 2.15 2.01 1.77 1.69 1.83 2.12 2.49 2.31 2.35 2.52 2.77
0.94 1.17 1.43 1.48 1.54 1.57 1.67 1.86 2.12 2.15 2.05 2.04 1.83 1.60 1.48 1.51 1.55 1.65 1.66 1.64 1.65 1.46 1.30 1.14 1.01 0.81 1.02 1.37 1.76 2.04 2.19 2.37 2.31 2.25 1.97 1.69 1.67 1.90 2.28 2.26 2.29 2.45 2.69
1.09 1.33 1.54 1.78 1.89 1.76 1.80 2.04 2.33 2.47 2.28 2.11 2.19 2.06 1.88 1.69 1.65 1.60 1.60 1.64 1.67 1.59 1.45 1.40 1.27 1.12 1.04 1.05 1.27 1.60 1.87 2.11 2.22 2.32 2.28 2.01 1.81 1.85 1.98 1.95 2.01 2.34 2.72
1.16 1.21 1.47 1.67 1.76 1.84 1.88 1.99 2.29 2.62 2.44 2.15 2.35 2.74 2.55 2.34 1.87 1.53 1.65 1.70 1.75 1.68 1.54 1.38 1.36 1.30 1.26 1.31 0.98 0.99 1.32 1.69 2.12 2.32 2.31 2.23 2.10 1.88 1.92 1.85 1.80 1.99 2.34
1.49 1.47 1.51 1.62 1.70 1.85 1.99 2.02 2.07 2.39 2.47 2.31 2.29 2.85 2.83 2.62 2.42 1.92 1.59 1.65 1.77 1.82 1.77 1.64 1.50 1.44 1.37 1.47 1.23 0.84 0.93 1.17 1.69 2.15 2.41 2.42 2.27 2.00 1.95 1.89 1.83 1.95 2.12
1.79 1.79 1.81 1.88 1.79 1.77 1.87 1.87 1.87 2.11 2.46 2.54 2.38 2.22 2.18 2.28 2.62 2.37 1.84 1.68 1.71 1.72 1.82 1.68 1.68 1.71 1.65 1.57 1.41 1.03 0.77 0.87 1.29 1.95 2.45 2.49 2.33 2.18 2.06 2.01 1.86 1.85 2.00
2.37 2.31 2.25 2.08 1.88 1.81 1.87 1.92 1.95 2.03 2.16 2.35 2.32 2.16 2.12 2.08 1.97 2.16 2.14 1.94 1.74 1.62 1.71 1.73 1.72 1.72 1.76 1.69 1.58 1.25 0.89 0.71 0.87 1.44 2.08 2.30 2.32 2.23 2.18 2.11 1.93 1.81 1.72
2.36 2.28 2.12 1.89 1.72 1.66 1.75 1.92 1.95 2.01 2.01 2.08 2.07 1.96 1.97 1.93 1.87 2.03 2.00 2.02 1.99 1.60 1.46 1.52 1.57 1.61 1.59 1.61 1.47 1.54 1.22 0.88 0.75 0.97 1.41 1.81 2.12 2.30 2.29 2.37 2.21 2.02 1.83
1.75 1.76 1.76 1.74 1.63 1.54 1.65 1.88 1.98 2.03 2.00 1.97 1.92 1.85 1.90 1.76 1.80 2.08 2.17 2.08 1.96 1.63 1.44 1.33 1.37 1.42 1.35 1.46 1.52 1.64 1.39 1.12 0.89 0.83 0.97 1.24 1.52 1.89 2.26 2.54 2.69 2.58 2.43
1.52 1.55 1.61 1.65 1.59 1.56 1.59 1.72 1.87 1.97 1.97 1.90 1.83 1.93 1.94 1.74 1.80 1.84 1.94 2.15 2.02 1.77 1.54 1.26 1.19 1.16 1.20 1.24 1.40 1.59 1.16 1.09 0.95 0.82 0.78 0.88 1.12 1.36 1.71 2.15 2.53 2.64 2.62
1.20 1.29 1.43 1.52 1.48 1.46 1.47 1.61 1.76 1.79 1.88 1.95 1.95 1.92 1.93 1.85 1.85 1.87 1.98 2.10 2.13 1.93 1.66 1.37 1.19 1.07 1.11 1.10 1.31 1.23 1.05 1.10 1.02 0.92 0.85 0.80 0.92 1.11 1.36 1.48 1.59 1.73 1.90
1.12 1.13 1.11 1.13 1.11 1.15 1.16 1.26 1.46 1.56 1.61 1.70 1.72 1.75 1.79 1.77 1.84 1.85 1.92 2.02 2.01 1.95 1.80 1.49 1.26 1.18 1.21 1.07 1.20 1.09 1.14 1.30 1.12 0.98 0.91 0.85 0.87 0.96 1.04 1.08 1.10 1.08 1.12
0.82 0.87 0.80 0.79 0.85 0.89 0.84 0.93 1.05 1.14 1.25 1.36 1.36 1.42 1.49 1.49 1.63 1.67 1.77 1.86 1.90 1.86 1.64 1.42 1.27 1.27 1.27 1.24 1.19 1.10 1.15 1.19 1.09 1.00 0.88 0.79 0.81 0.88 0.93 0.97 0.97 0.93 0.92
0.54 0.59 0.58 0.56 0.62 0.74 0.76 0.82 0.87 0.87 0.97 1.10 1.17 1.22 1.22 1.24 1.36 1.44 1.52 1.61 1.74 1.78 1.68 1.50 1.35 1.26 1.14 1.14 1.28 1.32 1.29 1.21 1.21 1.27 1.16 1.00 0.93 0.90 0.87 0.92 0.98 0.94 0.92
0.45 0.46 0.46 0.49 0.51 0.59 0.72 0.76 0.77 0.76 0.77 0.81 0.86 0.91 0.97 1.06 1.21 1.26 1.28 1.39 1.55 1.60 1.70 1.57 1.45 1.36 1.19 1.12 1.28 1.30 1.34 1.51 1.42 1.49 1.61 1.40 1.15 1.00 0.89 0.92 0.99 0.97 0.92
0.41 0.40 0.39 0.39 0.46 0.56 0.65 0.73 0.74 0.72 0.71 0.75 0.79 0.77 0.77 0.83 0.94 1.08 1.15 1.32 1.49 1.62 1.68 1.60 1.55 1.49 1.40 1.28 1.34 1.45 1.51 1.60 1.62 1.45 1.46 1.43 1.37 1.25 1.06 0.95 1.00 1.05 1.04
0.36 0.33 0.32 0.34 0.41 0.46 0.52 0.66 0.69 0.69 0.73 0.70 0.73 0.75 0.75 0.75 0.78 0.83 0.82 0.99 1.20 1.45 1.56 1.61 1.59 1.59 1.53 1.47 1.39 1.53 1.60 1.72 1.80 1.78 1.64 1.46 1.41 1.27 1.14 1.06 1.03 1.07 1.12
0.34 0.31 0.30 0.31 0.31 0.30 0.46 0.54 0.59 0.66 0.73 0.78 0.77 0.78 0.75 0.73 0.80 0.79 0.75 0.77 0.89 1.04 1.23 1.34 1.40 1.43 1.48 1.57 1.67 1.67 1.65 1.71 1.76 1.75 1.62 1.63 1.56 1.45 1.28 1.10 1.10 1.11 1.14
0.30 0.29 0.30 0.31 0.31 0.29 0.31 0.33 0.47 0.61 0.74 0.77 0.76 0.87 0.90 0.82 0.84 0.86 0.88 0.80 0.74 0.75 0.91 1.12 1.24 1.26 1.33 1.40 1.62 1.67 1.68 1.71 1.62 1.64 1.49 1.53 1.48 1.35 1.26 1.22 1.23 1.15 1.16
0.29 0.30 0.35 0.34 0.31 0.27 0.27 0.25 0.34 0.50 0.65 0.69 0.69 0.79 1.03 1.05 0.94 0.91 0.96 1.02 0.91 0.76 0.76 0.82 0.99 1.13 1.17 1.31 1.63 1.85 1.79 1.59 1.53 1.57 1.46 1.46 1.39 1.26 1.18 1.16 1.22 1.13 1.11
0.29 0.28 0.30 0.32 0.30 0.28 0.28 0.27 0.31 0.42 0.53 0.57 0.59 0.71 0.86 0.98 0.94 0.91 0.91 0.98 1.00 0.87 0.83 0.85 0.82 0.90 1.02 1.19 1.44 1.70 1.80 1.74 1.57 1.51 1.39 1.31 1.31 1.28 1.30 1.25 1.21 1.20 1.11
0.30 0.31 0.30 0.27 0.26 0.26 0.28 0.30 0.32 0.35 0.40 0.40 0.46 0.64 0.82 0.80 0.77 0.82 0.88 0.99 1.09 0.92 0.83 0.92 0.89 0.92 0.94 1.12 1.44 1.64 1.76 1.75 1.62 1.56 1.45 1.36 1.34 1.35 1.51 1.45 1.28 1.23 1.16